Find Iridium Next SV134

NORAD ID: 43075 Int'l Des: 2017-083 Owner: IRIDS Country: US Constellation: Iridium NEXT operational
LEOCIRCULARPOLAR

リアルタイム位置

3D地球を読み込み中...

Iridium Next SV134について

説明を読み込み中...

次回通過

Passes for default location (London). Set your location on the main map for personalized predictions.

高度履歴

Loading altitude history...

軌道要素

1 43075U 17083F 26107.14850867 .00000123 00000-0 36861-4 0 9997
2 43075 86.4006 347.5884 0002286 87.1777 272.9680 14.34218526435359
Epoch: Apr 17, 2026 • Age: 14 hours

現在のステータス

高度 782.1 km
速度 7.46 km/s
衛星直下点 -6.27°S, 54.49°E
打ち上げ日 Dec 23, 2017
運用期間 8.3 years
タイプ communications

技術仕様

分類 Payload
質量 860.00 kg
乾燥質量 700.00 kg
総質量 860.00 kg
長さ 3.10 m
直径 1.50 m
スパン 9.40 m
形状 Half Hex Prism+2 pan
製造者 OATKGA
バスタイプ EliteBus
フェーズステータス In Orbit
所有者/国 IRIDS/US

Most Searched